Overview Statistics Trail Chart Weather Telemetry Raw packets
 

This is the latest recevied weather packets stored in our database for station/object OE3APM-13. If no packets are shown the sender has not sent any weather packets the latest 10 day(s).

<< 14 15 16 17 18 19 20 >>
Time Temp. Humidity Pressure Rain* Wind** Luminosity Snow
1788515370 25.56° C 52% 1019.4 hPa 0 mm - 796 W/m² -
1788515070 26.11° C 52% 1019.4 hPa 0 mm - 533 W/m² -
1788514770 26.11° C 52% 1019.6 hPa 0 mm - 798 W/m² -
1788514470 25.56° C 52% 1019.6 hPa 0 mm - 793 W/m² -
1788514171 25.56° C 53% 1019.7 hPa 0 mm - 765 W/m² -
1788513870 25.56° C 52% 1019.8 hPa 0 mm - 536 W/m² -
1788513570 25.56° C 53% 1019.8 hPa 0 mm - 529 W/m² -
1788513271 25° C 55% 1019.9 hPa 0 mm - 652 W/m² -
1788512971 25° C 56% 1019.9 hPa 0 mm - 657 W/m² -
1788512672 24.44° C 55% 1020 hPa 0 mm - 501 W/m² -
1788512371 24.44° C 55% 1020 hPa 0 mm - 466 W/m² -
1788512070 23.89° C 56% 1019.9 hPa 0 mm - 645 W/m² -
1788511772 23.89° C 56% 1020 hPa 0 mm - 346 W/m² -
1788511473 23.89° C 55% 1020.2 hPa 0 mm - 250 W/m² -
1788511174 24.44° C 55% 1020.2 hPa 0 mm - 325 W/m² -
1788510894 24.44° C 55% 1020.2 hPa 0 mm - 316 W/m² -
1788510571 24.44° C 55% 1020.3 hPa 0 mm - 334 W/m² -
1788510274 24.44° C 55% 1020.2 hPa 0 mm - 330 W/m² -
1788509971 23.89° C 56% 1020.2 hPa 0 mm - 489 W/m² -
1788509671 23.89° C 56% 1020 hPa 0 mm - 610 W/m² -
1788509372 23.89° C 58% 1020.2 hPa 0 mm - 387 W/m² -
1788509070 23.33° C 59% 1020.3 hPa 0 mm - 629 W/m² -
1788508770 23.33° C 58% 1020.2 hPa 0 mm - 619 W/m² -
1788508494 23.33° C 59% 1020.3 hPa 0 mm - 355 W/m² -
1788508172 22.78° C 60% 1020.3 hPa 0 mm - 193 W/m² -

* Rain latest hour (hover to see other rain measurements)
** Current wind speed in m/s (hover to see current wind gust speed)